Flag for Mexico

Past Weather in Fresnillo, Zacatecas, Mexico — Yesterday and Last 2 Weeks

Now
61 °F

Partly sunny.


Feels Like: 61 °F
Forecast: 79 / 58 °F
Wind: No wind

Location: Zacatecas Airport

Current Time: Jul 8, 2020 at 10:19:08 am

Latest Report: Jul 8, 2020 at 8:41 am


Visibility: 10 mi

Pressure: 30.28 "Hg (23.38 "Hg at 2187m altitude)

Humidity: 83%

Dew Point: 55 °F

Location of FresnilloLocation

Past Weather in Fresnillo — Graph

°F

Fresnillo Temperature Yesterday

Maximum temperature yesterday: 82 °F (at 4:44 pm)
Minimum temperature yesterday: 61 °F (at 2:40 am)
Average temperature yesterday: 69 °F

High & Low Weather Summary for the Past Weeks

 TemperatureHumidityPressure
High82 °F (Jun 23, 4:40 pm)94% (Jun 27, 3:40 am)30.32 "Hg (Jun 27, 3:40 am)
Low55 °F (Jun 25, 6:40 am)20% (Jun 23, 5:40 pm)30.14 "Hg (Jun 23, 6:41 pm)
Average68 °F61%30.24 "Hg
* Reported Jun 23 8:44 am — Jul 8 8:41 am, Fresnillo. Weather by CustomWeather, © 2020

Note: Actual official high and low records may vary slightly from our data, if they occured in-between our weather recording intervals... More about our weather records

Fresnillo Weather History for the Previous 24 Hours

Scroll right to see more
 ConditionsComfort  
Time TempWeatherWind HumidityBarometerVisibility
8:41 am
Wed, Jul 8
61 °FPartly sunny.No wind83%30.28 "Hg10 mi
7:40 am57 °FPartly sunny.No wind88%30.26 "Hg10 mi
6:44 am57 °FPassing clouds.6 mph88%30.26 "Hg10 mi
5:44 am59 °FPassing clouds.6 mph88%30.26 "Hg10 mi
4:56 am59 °FPassing clouds.6 mph88%30.25 "Hg10 mi
3:43 am61 °FPassing clouds.6 mph83%30.26 "Hg8 mi
1:51 am63 °FRain. Passing clouds.12 mph83%30.25 "Hg6 mi
12:40 am63 °FLight rain. Passing clouds.6 mph83%30.28 "Hg8 mi
11:44 pm
Tue, Jul 7
64 °FRain. Passing clouds.20 mph73%30.26 "Hg6 mi
11:28 pm64 °FRain. Passing clouds.12 mph78%30.26 "Hg6 mi
10:41 pm68 °FPassing clouds.6 mph56%30.22 "Hg10 mi
9:43 pm66 °FPassing clouds.12 mph64%30.22 "Hg10 mi
8:40 pm66 °FPartly cloudy.12 mph68%30.21 "Hg9 mi
7:40 pm77 °FBroken clouds.23 mph39%30.19 "Hg9 mi
6:40 pm81 °FPartly sunny.12 mph32%30.17 "Hg9 mi
5:40 pm82 °FBroken clouds.12 mph30%30.19 "Hg10 mi
4:44 pm82 °FBroken clouds.12 mph30%30.20 "Hg10 mi
3:40 pm79 °FPartly sunny.No wind39%30.24 "Hg10 mi
2:42 pm79 °FBroken clouds.No wind42%30.25 "Hg10 mi
1:44 pm79 °FPartly sunny.No wind42%30.26 "Hg10 mi
12:40 pm75 °FPartly sunny.12 mph47%30.28 "Hg10 mi
11:40 am72 °FPartly sunny.12 mph57%30.29 "Hg10 mi
10:40 am70 °FPartly sunny.12 mph60%30.30 "Hg10 mi
Weather by CustomWeather, © 2020

See weather overview